QPF
0.00 0.00 0.00 0.00 0.00 0.00 0.00 0.00 0.00 0.00 0.00 0.00 0.00 0.00 0.00 0.00 0.00 0.00 0.01 0.01 0.00 0.00 0.01 0.00 0.00 0.00 0.00 0.01 0.01 0.03 0.03 0.03 0.02 0.01 0.00 0.00 0.00 0.00 0.00 0.00 0.00 0.00 0.00
0.00 0.00 0.00 0.00 0.00 0.00 0.00 0.00 0.00 0.00 0.00 0.00 0.00 0.00 0.01 0.00 0.00 0.00 0.01 0.00 0.03 0.01 0.05 0.01 0.00 0.00 0.01 0.00 0.00 0.01 0.00 0.00 0.00 0.00 0.00 0.00 0.00 0.00 0.00 0.00 0.00 0.00 0.00
0.00 0.00 0.00 0.00 0.00 0.00 0.00 0.00 0.00 0.00 0.00 0.00 0.00 0.00 0.01 0.00 0.00 0.00 0.01 0.00 0.00 0.00 0.02 0.05 0.00 0.00 0.01 0.01 0.00 0.00 0.00 0.00 0.01 0.00 0.00 0.00 0.00 0.00 0.00 0.00 0.00 0.00 0.01
0.00 0.00 0.00 0.00 0.00 0.00 0.00 0.00 0.00 0.00 0.00 0.00 0.00 0.00 0.00 0.01 0.01 0.00 0.00 0.00 0.01 0.01 0.00 0.04 0.01 0.00 0.01 0.01 0.00 0.00 0.00 0.00 0.05 0.02 0.00 0.00 0.00 0.00 0.00 0.00 0.00 0.00 0.00
0.00 0.00 0.00 0.00 0.00 0.00 0.00 0.00 0.00 0.00 0.00 0.00 0.00 0.00 0.00 0.01 0.00 0.00 0.00 0.01 0.04 0.00 0.01 0.02 0.01 0.00 0.00 0.00 0.00 0.00 0.00 0.00 0.00 0.00 0.00 0.00 0.00 0.00 0.00 0.00 0.00 0.01 0.01
0.00 0.00 0.00 0.00 0.00 0.00 0.00 0.00 0.00 0.00 0.00 0.00 0.00 0.00 0.00 0.01 0.00 0.01 0.01 0.02 0.03 0.00 0.00 0.02 0.00 0.00 0.00 0.00 0.00 0.00 0.00 0.00 0.00 0.00 0.00 0.00 0.00 0.00 0.00 0.00 0.00 0.00 0.00
0.00 0.00 0.00 0.00 0.00 0.00 0.00 0.00 0.00 0.00 0.00 0.00 0.00 0.00 0.01 0.01 0.02 0.03 0.01 0.01 0.00 0.00 0.01 0.01 0.01 0.00 0.01 0.02 0.00 0.00 0.00 0.00 0.00 0.00 0.00 0.00 0.00 0.00 0.00 0.00 0.00 0.00 0.00
0.00 0.00 0.00 0.00 0.00 0.00 0.00 0.00 0.00 0.00 0.00 0.00 0.00 0.01 0.02 0.01 0.03 0.03 0.02 0.01 0.00 0.00 0.00 0.02 0.04 0.01 0.00 0.00 0.00 0.00 0.00 0.00 0.00 0.00 0.00 0.00 0.00 0.00 0.00 0.01 0.00 0.01 0.00
0.00 0.00 0.00 0.00 0.00 0.00 0.00 0.00 0.00 0.01 0.00 0.00 0.00 0.01 0.02 0.01 0.00 0.02 0.02 0.02 0.01 0.00 0.00 0.02 0.00 0.00 0.00 0.00 0.00 0.00 0.00 0.00 0.00 0.00 0.00 0.00 0.00 0.00 0.00 0.00 0.00 0.00 0.00
0.00 0.00 0.00 0.00 0.00 0.00 0.00 0.00 0.00 0.00 0.00 0.00 0.00 0.01 0.03 0.01 0.01 0.01 0.02 0.02 0.01 0.00 0.00 0.01 0.00 0.00 0.00 0.00 0.00 0.00 0.00 0.00 0.00 0.00 0.00 0.00 0.00 0.00 0.00 0.00 0.00 0.00 0.00
0.00 0.00 0.00 0.00 0.00 0.00 0.00 0.00 0.01 0.05 0.02 0.00 0.02 0.01 0.01 0.00 0.00 0.00 0.00 0.01 0.01 0.00 0.01 0.03 0.00 0.00 0.00 0.00 0.00 0.00 0.00 0.00 0.00 0.00 0.00 0.00 0.00 0.00 0.00 0.00 0.00 0.00 0.00
0.00 0.00 0.00 0.00 0.01 0.00 0.00 0.00 0.00 0.01 0.07 0.02 0.04 0.02 0.05 0.07 0.03 0.03 0.01 0.01 0.00 0.00 0.00 0.02 0.00 0.00 0.00 0.00 0.00 0.00 0.00 0.00 0.00 0.00 0.00 0.00 0.00 0.00 0.00 0.00 0.00 0.00 0.00
0.00 0.00 0.00 0.00 0.04 0.02 0.03 0.01 0.00 0.02 0.06 0.09 0.11 0.17 0.08 0.05 0.05 0.06 0.07 0.01 0.00 0.00 0.00 0.01 0.00 0.00 0.00 0.00 0.00 0.00 0.00 0.00 0.00 0.00 0.00 0.00 0.00 0.00 0.00 0.00 0.00 0.00 0.00
0.00 0.00 0.00 0.00 0.00 0.06 0.06 0.01 0.00 0.00 0.03 0.03 0.03 0.09 0.05 0.01 0.02 0.11 0.13 0.02 0.03 0.01 0.00 0.00 0.00 0.00 0.00 0.00 0.00 0.00 0.00 0.00 0.00 0.00 0.00 0.00 0.00 0.00 0.00 0.00 0.00 0.00 0.00
0.00 0.00 0.00 0.00 0.00 0.01 0.07 0.04 0.00 0.00 0.01 0.00 0.02 0.03 0.07 0.14 0.05 0.04 0.06 0.03 0.05 0.00 0.00 0.00 0.00 0.00 0.00 0.00 0.00 0.00 0.00 0.00 0.00 0.00 0.00 0.00 0.00 0.00 0.00 0.00 0.00 0.00 0.00
0.00 0.00 0.00 0.00 0.00 0.03 0.01 0.06 0.01 0.00 0.00 0.00 0.03 0.04 0.07 0.15 0.11 0.02 0.00 0.00 0.01 0.02 0.01 0.01 0.00 0.00 0.00 0.00 0.00 0.00 0.00 0.00 0.00 0.00 0.00 0.00 0.00 0.00 0.01 0.00 0.00 0.00 0.00
0.00 0.00 0.00 0.00 0.00 0.00 0.01 0.02 0.01 0.00 0.00 0.00 0.01 0.10 0.08 0.17 0.14 0.15 0.03 0.01 0.00 0.01 0.02 0.03 0.00 0.00 0.00 0.00 0.00 0.00 0.00 0.00 0.00 0.00 0.00 0.00 0.00 0.01 0.03 0.02 0.01 0.01 0.03
0.00 0.00 0.00 0.00 0.00 0.00 0.00 0.01 0.00 0.00 0.00 0.00 0.00 0.02 0.04 0.08 0.07 0.07 0.04 0.01 0.01 0.05 0.03 0.03 0.02 0.03 0.00 0.00 0.00 0.00 0.00 0.00 0.00 0.00 0.00 0.00 0.00 0.00 0.01 0.05 0.03 0.02 0.02
0.00 0.00 0.00 0.00 0.00 0.00 0.00 0.00 0.00 0.01 0.00 0.00 0.00 0.00 0.01 0.02 0.02 0.06 0.09 0.02 0.04 0.07 0.10 0.05 0.04 0.08 0.03 0.03 0.00 0.00 0.00 0.00 0.00 0.00 0.00 0.00 0.00 0.00 0.00 0.01 0.03 0.02 0.00
0.00 0.00 0.00 0.00 0.00 0.00 0.00 0.00 0.00 0.00 0.00 0.00 0.00 0.00 0.10 0.03 0.01 0.01 0.02 0.08 0.09 0.13 0.12 0.07 0.09 0.06 0.09 0.04 0.01 0.01 0.00 0.00 0.00 0.00 0.00 0.00 0.00 0.00 0.00 0.00 0.03 0.01 0.00
0.00 0.00 0.00 0.00 0.00 0.00 0.00 0.00 0.00 0.00 0.00 0.00 0.00 0.00 0.11 0.07 0.01 0.00 0.00 0.03 0.05 0.04 0.06 0.06 0.12 0.11 0.13 0.15 0.14 0.06 0.06 0.00 0.00 0.00 0.00 0.00 0.00 0.00 0.00 0.00 0.00 0.00 0.00
0.00 0.00 0.00 0.00 0.00 0.00 0.00 0.00 0.00 0.00 0.00 0.00 0.00 0.00 0.04 0.05 0.06 0.02 0.00 0.01 0.03 0.02 0.02 0.01 0.04 0.07 0.09 0.22 0.12 0.19 0.11 0.05 0.00 0.00 0.00 0.00 0.00 0.00 0.00 0.00 0.00 0.00 0.00
0.00 0.00 0.00 0.00 0.00 0.00 0.00 0.00 0.00 0.00 0.00 0.00 0.00 0.00 0.00 0.01 0.03 0.09 0.05 0.02 0.01 0.01 0.00 0.00 0.00 0.00 0.01 0.14 0.08 0.13 0.10 0.06 0.03 0.00 0.00 0.00 0.00 0.00 0.00 0.00 0.00 0.00 0.01
0.00 0.00 0.00 0.00 0.00 0.00 0.00 0.00 0.00 0.00 0.00 0.00 0.00 0.00 0.00 0.00 0.01 0.06 0.08 0.11 0.07 0.06 0.12 0.03 0.03 0.03 0.03 0.02 0.06 0.03 0.02 0.05 0.09 0.05 0.03 0.02 0.01 0.02 0.00 0.00 0.00 0.00 0.00
0.00 0.00 0.00 0.00 0.00 0.00 0.00 0.00 0.00 0.00 0.00 0.00 0.00 0.00 0.00 0.00 0.00 0.01 0.11 0.18 0.12 0.09 0.12 0.07 0.03 0.13 0.08 0.07 0.11 0.06 0.09 0.08 0.10 0.10 0.11 0.05 0.06 0.01 0.00 0.00 0.00 0.00 0.01
0.00 0.00 0.00 0.00 0.00 0.00 0.00 0.00 0.00 0.00 0.00 0.00 0.00 0.00 0.00 0.00 0.00 0.00 0.04 0.08 0.10 0.09 0.09 0.06 0.06 0.08 0.13 0.07 0.11 0.14 0.11 0.05 0.05 0.07 0.06 0.04 0.05 0.02 0.00 0.00 0.00 0.00 0.01
MSLP
1007.29 1008.57 1009.47 1009.88 1010.29 1010.70 1011.07 1011.47 1011.82 1012.08 1012.47 1012.64 1012.74 1013.16 1013.51 1013.83 1014.16 1014.53 1014.76 1014.92 1015.15 1015.18 1015.25 1015.47 1015.62 1015.84 1015.95 1016.09 1016.12 1016.24 1016.34 1016.53 1016.55 1016.57 1016.53 1016.86 1017.13 1017.40 1017.59 1017.68 1017.64 1018.11 1018.45
1007.14 1008.61 1009.41 1009.90 1010.37 1010.68 1011.08 1011.47 1011.85 1012.15 1012.55 1012.79 1013.00 1013.35 1013.70 1013.93 1014.31 1014.70 1015.02 1015.01 1015.35 1015.28 1015.37 1015.64 1015.77 1016.02 1016.15 1016.30 1016.38 1016.50 1016.53 1016.65 1016.72 1016.74 1016.86 1017.17 1017.42 1017.64 1017.70 1017.45 1018.09 1018.41 1018.62
1007.23 1008.59 1009.41 1009.92 1010.48 1010.86 1011.21 1011.57 1011.88 1012.21 1012.59 1012.95 1013.31 1013.51 1013.79 1014.10 1014.55 1014.77 1015.11 1015.14 1015.32 1015.47 1015.75 1015.81 1015.92 1016.16 1016.34 1016.54 1016.53 1016.64 1016.66 1016.78 1016.85 1016.86 1016.72 1017.07 1017.68 1017.81 1017.92 1018.06 1018.36 1018.58 1018.75
1007.34 1008.68 1009.43 1010.11 1010.53 1011.02 1011.39 1011.76 1012.05 1012.36 1012.69 1013.02 1013.39 1013.77 1013.98 1014.35 1014.64 1014.91 1015.15 1015.23 1015.42 1015.55 1015.75 1016.03 1016.07 1016.28 1016.56 1016.75 1016.73 1016.76 1016.80 1016.95 1016.85 1016.94 1017.02 1016.85 1017.44 1018.02 1018.16 1018.34 1018.58 1018.82 1018.97
1007.25 1008.23 1009.51 1010.27 1010.64 1011.10 1011.54 1011.91 1012.21 1012.51 1012.87 1013.17 1013.53 1013.82 1014.05 1014.42 1014.69 1015.06 1015.27 1015.43 1015.54 1015.66 1015.96 1016.17 1016.29 1016.47 1016.71 1016.87 1017.00 1016.95 1016.86 1016.92 1017.00 1017.06 1017.04 1016.99 1017.59 1018.28 1018.41 1018.60 1018.80 1019.01 1019.05
1006.65 1007.75 1009.70 1010.39 1010.84 1011.20 1011.63 1011.99 1012.40 1012.72 1013.07 1013.34 1013.65 1013.89 1014.18 1014.65 1014.78 1015.08 1015.30 1015.56 1015.74 1015.85 1016.01 1016.22 1016.36 1016.60 1016.84 1017.02 1017.14 1017.05 1016.88 1016.97 1017.06 1016.74 1016.80 1017.20 1017.88 1018.50 1018.61 1018.69 1019.03 1019.29 1019.51
1006.28 1007.95 1009.47 1010.45 1011.01 1011.43 1011.77 1012.10 1012.54 1012.91 1013.21 1013.50 1013.83 1014.14 1014.42 1014.66 1014.95 1015.13 1015.44 1015.65 1015.88 1016.00 1016.15 1016.34 1016.48 1016.78 1017.02 1017.19 1017.22 1017.17 1017.03 1016.93 1017.07 1016.68 1017.06 1017.64 1018.28 1018.60 1018.74 1018.95 1019.19 1019.48 1019.67
1006.75 1008.09 1009.27 1010.27 1011.01 1011.52 1011.98 1012.28 1012.59 1013.03 1013.36 1013.64 1013.91 1014.19 1014.59 1014.78 1015.01 1015.24 1015.61 1015.75 1015.96 1016.07 1016.35 1016.49 1016.72 1016.88 1017.12 1017.29 1017.28 1017.22 1017.03 1017.16 1016.85 1016.82 1016.97 1017.73 1018.27 1018.59 1018.86 1019.09 1019.28 1019.56 1019.73
1006.82 1008.14 1009.30 1010.15 1010.91 1011.49 1011.94 1012.40 1012.72 1013.04 1013.38 1013.71 1014.03 1014.33 1014.67 1014.88 1015.02 1015.34 1015.59 1015.89 1016.01 1016.20 1016.44 1016.65 1016.79 1016.96 1017.20 1017.30 1017.36 1017.15 1016.95 1016.94 1016.92 1016.26 1016.93 1017.80 1018.12 1018.51 1018.87 1019.16 1019.34 1019.56 1019.76
1006.65 1008.07 1009.13 1009.87 1010.75 1011.26 1011.79 1012.30 1012.76 1013.09 1013.37 1013.71 1014.01 1014.28 1014.61 1014.85 1015.10 1015.34 1015.67 1015.92 1016.06 1016.27 1016.42 1016.62 1016.82 1017.01 1017.21 1017.36 1017.39 1017.08 1016.90 1017.02 1016.88 1016.36 1016.87 1017.48 1018.05 1018.41 1018.85 1019.10 1019.33 1019.57 1019.79
1006.69 1007.77 1008.75 1009.62 1010.48 1011.04 1011.53 1012.14 1012.65 1013.10 1013.42 1013.65 1013.93 1014.15 1014.47 1014.58 1014.83 1015.24 1015.47 1015.74 1016.04 1016.21 1016.40 1016.61 1016.82 1017.04 1017.18 1017.26 1017.22 1016.95 1017.00 1016.64 1016.06 1016.10 1016.71 1017.45 1017.79 1018.33 1018.74 1019.04 1019.26 1019.53 1019.75
1006.73 1007.49 1008.41 1009.24 1010.09 1010.67 1010.96 1011.80 1012.39 1012.87 1013.29 1013.46 1013.72 1013.97 1014.18 1014.21 1014.48 1014.77 1015.07 1015.69 1015.89 1016.16 1016.36 1016.59 1016.73 1016.96 1017.10 1016.96 1016.85 1016.93 1016.84 1016.14 1015.90 1016.18 1016.64 1017.26 1017.48 1018.04 1018.54 1018.94 1019.23 1019.48 1019.72
1006.40 1007.13 1008.06 1008.88 1009.67 1010.37 1010.73 1011.40 1011.99 1012.28 1012.80 1013.12 1013.37 1013.77 1013.97 1014.38 1014.36 1014.54 1015.14 1015.45 1015.79 1016.06 1016.20 1016.50 1016.70 1016.83 1016.67 1016.53 1016.23 1016.34 1016.03 1015.85 1015.59 1015.77 1016.47 1017.00 1017.26 1017.64 1018.26 1018.66 1019.00 1019.32 1019.55
1005.88 1006.72 1007.53 1008.51 1009.35 1010.04 1010.43 1011.08 1011.31 1011.88 1012.29 1012.82 1013.10 1013.53 1014.07 1014.39 1014.57 1014.56 1014.95 1014.84 1015.41 1015.71 1015.82 1016.01 1016.20 1016.36 1016.12 1016.04 1015.97 1016.01 1015.76 1015.36 1015.47 1016.28 1016.56 1016.85 1017.11 1017.29 1017.91 1018.34 1018.66 1018.97 1019.28
1005.34 1006.38 1007.06 1007.99 1009.01 1009.72 1010.32 1010.66 1010.75 1011.08 1011.61 1011.97 1012.50 1013.14 1013.62 1014.09 1014.40 1014.43 1014.49 1014.56 1015.10 1015.19 1015.43 1015.55 1015.65 1015.73 1015.64 1015.56 1015.60 1015.52 1015.56 1015.44 1015.58 1016.10 1016.62 1016.58 1016.94 1017.04 1017.45 1017.92 1018.26 1018.56 1018.90
1004.64 1005.79 1006.77 1007.54 1008.32 1009.16 1009.81 1010.32 1010.41 1010.45 1011.00 1011.36 1012.11 1012.62 1013.10 1013.54 1013.99 1014.21 1014.27 1014.38 1014.60 1014.58 1014.80 1015.00 1015.14 1015.34 1015.28 1015.25 1015.38 1015.38 1015.56 1015.50 1015.45 1015.73 1016.35 1016.57 1016.85 1016.98 1017.31 1017.50 1017.76 1018.09 1018.34
1004.24 1005.38 1006.28 1007.09 1007.88 1008.66 1009.29 1009.87 1010.02 1010.03 1010.41 1011.02 1011.68 1012.30 1012.59 1013.17 1013.55 1013.90 1014.10 1014.22 1014.23 1014.28 1014.25 1014.59 1014.45 1014.59 1015.07 1014.94 1015.19 1015.25 1015.59 1015.68 1015.49 1015.34 1015.47 1016.29 1016.20 1016.55 1016.88 1017.22 1017.46 1017.76 1017.94
1003.81 1004.93 1005.78 1006.69 1007.45 1008.22 1008.87 1009.34 1009.48 1009.48 1009.79 1010.50 1011.09 1011.70 1012.20 1012.69 1013.12 1013.32 1013.76 1013.83 1013.80 1014.06 1014.15 1014.54 1014.63 1014.82 1014.96 1015.26 1015.25 1015.31 1015.63 1015.56 1015.55 1015.46 1015.48 1015.49 1015.83 1015.90 1016.25 1016.74 1016.91 1017.15 1017.48
1003.23 1004.38 1005.46 1006.08 1007.03 1007.79 1008.46 1008.89 1009.28 1009.40 1009.72 1010.20 1010.38 1011.02 1011.64 1012.09 1012.56 1013.02 1013.41 1013.07 1013.01 1013.51 1014.10 1014.66 1014.85 1014.96 1015.13 1015.27 1015.32 1015.25 1015.18 1015.26 1015.21 1015.05 1015.20 1015.22 1015.27 1015.53 1015.70 1015.92 1016.29 1016.64 1016.79
1002.90 1003.92 1004.77 1005.56 1006.58 1007.32 1008.08 1008.71 1009.17 1009.42 1009.71 1009.65 1010.17 1010.34 1010.96 1011.43 1011.85 1012.64 1012.77 1013.04 1013.04 1013.53 1013.99 1014.38 1014.58 1014.83 1015.06 1015.24 1015.07 1014.82 1014.87 1014.88 1014.90 1014.97 1014.86 1014.65 1014.71 1014.89 1015.28 1015.53 1015.87 1016.17 1016.33
1002.63 1003.55 1004.43 1005.08 1005.95 1006.87 1007.53 1008.10 1008.67 1008.90 1009.09 1009.41 1009.70 1009.88 1010.36 1011.23 1011.53 1011.90 1012.49 1012.74 1013.10 1013.66 1013.99 1014.17 1014.49 1014.82 1014.96 1015.07 1015.28 1015.00 1014.86 1014.68 1014.66 1014.67 1014.49 1014.37 1014.35 1014.52 1014.59 1014.67 1015.04 1015.29 1015.53
1001.92 1003.03 1004.08 1004.86 1005.48 1006.37 1006.85 1007.40 1007.85 1008.01 1008.30 1008.86 1009.28 1009.59 1010.17 1010.93 1011.13 1011.49 1011.99 1012.31 1012.80 1013.34 1013.83 1013.92 1014.26 1014.53 1014.67 1014.81 1015.33 1015.47 1015.30 1014.99 1014.53 1014.10 1014.12 1014.02 1013.98 1013.87 1013.99 1014.17 1014.47 1014.76 1014.94
1000.87 1002.30 1003.42 1004.39 1005.11 1005.79 1006.40 1007.04 1007.59 1007.62 1007.74 1008.46 1008.85 1009.15 1009.55 1010.09 1010.72 1011.14 1011.40 1012.12 1012.63 1013.03 1013.23 1013.64 1013.91 1014.21 1014.39 1014.42 1014.72 1015.10 1015.05 1014.78 1013.97 1013.42 1013.55 1013.58 1013.64 1013.78 1013.59 1013.39 1013.67 1013.89 1014.28
999.96 1001.61 1002.77 1003.78 1004.55 1005.25 1005.82 1006.24 1006.47 1006.74 1007.04 1007.26 1007.75 1008.57 1008.95 1009.30 1010.09 1010.65 1011.07 1011.55 1012.09 1012.62 1012.91 1013.14 1013.51 1013.76 1014.04 1014.17 1014.42 1014.34 1014.39 1014.26 1014.49 1014.11 1013.68 1013.68 1013.37 1014.28 1012.86 1013.10 1013.25 1013.58 1013.74
999.16 1000.65 1002.06 1003.41 1004.16 1004.78 1005.17 1005.45 1005.93 1006.23 1006.36 1006.66 1007.04 1007.55 1008.29 1008.89 1009.28 1009.82 1010.43 1011.22 1011.60 1011.94 1012.43 1012.70 1012.89 1013.18 1013.38 1013.73 1013.79 1013.92 1014.13 1014.27 1014.43 1014.76 1014.47 1014.33 1014.29 1013.47 1012.92 1012.86 1013.02 1013.14 1013.34
998.80 999.86 1001.22 1002.41 1003.40 1004.16 1004.67 1004.90 1005.24 1005.64 1005.84 1006.15 1006.51 1006.83 1007.52 1008.11 1008.77 1009.15 1009.62 1010.41 1011.00 1011.38 1011.55 1012.03 1012.43 1012.67 1012.91 1013.15 1013.48 1013.73 1013.96 1014.12 1014.17 1014.34 1014.62 1014.20 1014.16 1013.95 1013.22 1013.10 1013.00 1013.08 1013.32
Thickness
5796 5790 5784 5781 5777 5774 5772 5770 5768 5766 5764 5763 5767 5765 5763 5762 5761 5758 5759 5760 5758 5761 5762 5762 5762 5762 5762 5762 5763 5764 5765 5764 5765 5767 5768 5767 5765 5764 5762 5762 5762 5760 5758
5799 5789 5784 5781 5777 5775 5773 5770 5768 5766 5763 5763 5763 5763 5762 5763 5761 5758 5757 5760 5758 5762 5763 5762 5762 5762 5762 5762 5763 5763 5765 5765 5765 5767 5767 5766 5765 5764 5763 5766 5762 5760 5759
5798 5788 5783 5780 5776 5774 5771 5770 5769 5767 5763 5763 5761 5762 5764 5762 5758 5759 5757 5760 5759 5760 5761 5762 5763 5762 5762 5761 5763 5764 5766 5767 5767 5768 5770 5769 5765 5764 5764 5763 5763 5762 5761
5798 5787 5782 5778 5776 5773 5771 5769 5768 5767 5766 5764 5762 5761 5761 5759 5759 5758 5757 5760 5760 5761 5761 5762 5763 5762 5761 5761 5763 5764 5766 5766 5768 5770 5770 5772 5767 5764 5764 5763 5763 5761 5761
5799 5792 5781 5776 5775 5772 5770 5768 5767 5766 5764 5763 5760 5760 5762 5759 5759 5757 5758 5759 5760 5762 5761 5762 5762 5761 5761 5761 5762 5764 5767 5768 5769 5770 5770 5773 5768 5763 5763 5762 5762 5760 5761
5804 5796 5780 5775 5773 5771 5769 5768 5766 5766 5764 5763 5762 5761 5762 5758 5758 5758 5758 5759 5759 5761 5762 5761 5762 5761 5761 5761 5762 5765 5768 5768 5769 5773 5774 5772 5768 5763 5762 5762 5760 5759 5758
5809 5795 5782 5775 5771 5769 5768 5766 5764 5764 5765 5764 5762 5761 5759 5758 5758 5759 5758 5759 5759 5760 5761 5761 5761 5761 5760 5760 5762 5764 5768 5770 5770 5774 5772 5769 5766 5764 5763 5762 5760 5759 5758
5807 5796 5786 5778 5772 5769 5766 5764 5763 5762 5762 5762 5761 5761 5758 5759 5758 5759 5758 5759 5759 5761 5759 5760 5760 5760 5759 5759 5762 5764 5768 5768 5771 5775 5774 5770 5767 5765 5763 5762 5761 5759 5758
5812 5798 5786 5779 5773 5769 5766 5764 5763 5762 5761 5760 5759 5759 5758 5759 5760 5759 5758 5757 5759 5759 5759 5759 5760 5760 5759 5760 5761 5764 5768 5770 5772 5779 5775 5770 5769 5767 5764 5763 5762 5760 5759
5814 5801 5790 5782 5775 5771 5767 5765 5763 5762 5761 5761 5760 5760 5760 5759 5759 5759 5759 5758 5758 5758 5758 5759 5760 5760 5760 5760 5761 5765 5768 5770 5773 5778 5776 5772 5769 5768 5765 5764 5763 5761 5760
5814 5804 5796 5787 5778 5774 5771 5766 5764 5762 5761 5761 5761 5761 5760 5761 5761 5760 5759 5759 5758 5759 5759 5759 5759 5759 5760 5761 5763 5767 5768 5773 5779 5780 5777 5773 5772 5768 5766 5765 5764 5763 5762
5809 5807 5800 5792 5785 5778 5776 5770 5766 5764 5763 5762 5761 5761 5762 5763 5762 5762 5761 5758 5759 5759 5759 5759 5759 5759 5759 5762 5765 5766 5769 5777 5781 5781 5778 5775 5775 5771 5768 5766 5765 5763 5762
5816 5811 5805 5797 5789 5783 5780 5774 5769 5769 5766 5765 5765 5763 5763 5762 5762 5763 5761 5759 5759 5759 5759 5759 5759 5759 5762 5765 5770 5770 5774 5778 5783 5782 5779 5777 5776 5774 5770 5768 5767 5764 5763
5821 5814 5810 5802 5793 5787 5783 5777 5775 5771 5769 5766 5766 5764 5761 5759 5759 5761 5762 5764 5761 5760 5762 5762 5762 5762 5765 5768 5770 5772 5776 5781 5783 5778 5778 5777 5777 5777 5772 5770 5769 5767 5765
5824 5818 5813 5807 5797 5791 5785 5782 5781 5779 5773 5772 5770 5766 5763 5760 5760 5761 5764 5766 5764 5764 5763 5765 5765 5767 5770 5771 5773 5775 5778 5780 5780 5780 5776 5779 5778 5778 5776 5773 5772 5770 5767
5833 5822 5817 5812 5805 5797 5791 5786 5785 5783 5779 5776 5771 5769 5765 5763 5762 5762 5765 5766 5766 5768 5768 5769 5770 5770 5772 5773 5774 5775 5775 5778 5780 5780 5776 5777 5777 5777 5775 5775 5774 5772 5771
5838 5828 5821 5816 5811 5803 5797 5791 5789 5787 5784 5779 5773 5768 5768 5764 5763 5762 5765 5767 5768 5768 5770 5769 5772 5774 5773 5775 5776 5776 5775 5775 5779 5782 5782 5777 5780 5779 5777 5776 5775 5773 5772
5842 5832 5827 5821 5814 5807 5801 5797 5794 5793 5789 5783 5778 5772 5769 5767 5764 5764 5764 5767 5768 5768 5769 5768 5770 5770 5771 5771 5773 5775 5774 5775 5777 5779 5780 5782 5781 5781 5780 5777 5777 5775 5773
5847 5836 5828 5824 5816 5810 5805 5801 5797 5795 5791 5786 5784 5779 5773 5771 5766 5765 5764 5769 5771 5770 5768 5766 5765 5766 5765 5766 5768 5772 5776 5776 5778 5779 5780 5782 5783 5783 5782 5782 5780 5777 5777
5849 5842 5833 5828 5819 5814 5808 5802 5798 5796 5793 5792 5787 5784 5779 5775 5771 5764 5766 5767 5767 5766 5764 5765 5763 5764 5762 5762 5766 5770 5773 5776 5777 5778 5780 5782 5784 5784 5782 5781 5780 5777 5777
5847 5841 5835 5829 5824 5816 5809 5802 5797 5794 5796 5794 5791 5788 5784 5775 5773 5770 5767 5768 5764 5761 5759 5761 5760 5758 5757 5759 5758 5761 5765 5772 5774 5776 5780 5781 5783 5782 5783 5785 5784 5781 5779
5847 5841 5836 5830 5826 5819 5815 5809 5805 5804 5801 5797 5794 5791 5783 5777 5774 5772 5769 5768 5765 5761 5759 5759 5757 5753 5754 5755 5748 5748 5745 5754 5766 5773 5777 5780 5782 5784 5785 5784 5785 5783 5782
5851 5843 5837 5833 5827 5823 5818 5812 5806 5806 5805 5796 5793 5791 5788 5782 5776 5772 5770 5767 5763 5761 5758 5756 5755 5753 5748 5753 5753 5746 5741 5740 5757 5772 5774 5777 5779 5780 5784 5787 5786 5786 5782
5853 5847 5840 5835 5829 5825 5821 5815 5811 5805 5799 5802 5801 5794 5791 5787 5780 5774 5771 5768 5765 5761 5757 5755 5754 5751 5749 5746 5750 5754 5755 5755 5744 5745 5766 5769 5776 5767 5785 5786 5785 5783 5782
5855 5848 5840 5833 5829 5825 5822 5820 5814 5808 5809 5806 5803 5799 5794 5789 5785 5780 5774 5769 5765 5761 5756 5754 5753 5751 5749 5745 5745 5747 5748 5749 5751 5743 5742 5752 5759 5770 5778 5780 5780 5780 5779
5853 5849 5841 5835 5830 5825 5822 5821 5817 5812 5810 5806 5803 5801 5796 5792 5788 5784 5779 5773 5768 5763 5759 5753 5752 5750 5749 5748 5744 5744 5743 5743 5743 5742 5740 5748 5751 5756 5768 5771 5774 5774 5774